Location: El Diablo
(32.4667°N, 116.4500°W)
Time: 01:19:23
(UTC+00:00)

SME Rocket - Pass Details

Date: 10 September 2024
Orbit: 550 x 2642 km, 99.9° (Epoch: 06 October)

Event Time Altitude Azimuth Distance (km) Brightness Sun altitude
Rises 12:54:23 0° 1° (N) 2,756 6.6 -7.6°
Reaches altitude 10° 12:56:37 10° 350° (N) 1,829 5.5 -7.1°
Maximum altitude 12:59:55 30° 288° (WNW) 1,030 3.7 -6.5°
Drops below altitude 10° 13:03:31 10° 226° (SW) 2,014 5.2 -5.7°
Sets 13:06:07 0° 216° (SW) 3,095 6.2 -5.2°
